Starlink 32173

operational
NORAD ID: 60586 Int'l Des: 2024-150 Owner: SPXS Country: US Constellation: starlink
LEOCIRCULAR

Starlink 32173について

説明を読み込み中...

リアルタイム位置

3D地球を読み込み中...

次回通過

高度履歴

Altitude vs Time

uPlot chart will show altitude changes over time

軌道要素

1 60586U 24150D 25260.08364657 -.00001511 00000-0 -38921-4 0 9998
2 60586 53.1616 33.2551 0001019 98.7310 261.3807 15.30180935 61466
Epoch: Sep 17, 2025 • Age: 24 hours

現在のステータス

高度 476.6 km
速度 7.63 km/s
衛星直下点 31.33°N, 152.44°E
打ち上げ日 Aug 20, 2024
運用期間 1 years
タイプ internet

技術仕様

分類 Payload
質量 730.00 kg
乾燥質量 700.00 kg
総質量 730.00 kg
長さ 0.30 m
直径 4.10 m
スパン 29.00 m
形状 Box + pan
製造者 SPXS
バスタイプ Starlink V2M
フェーズステータス In Orbit
所有者/国 SPXS/US

大規模コンステレーション

Loading constellations...